Location: Maiden
(35.5760°N, 81.2120°W)
Time: 02:32:05
(UTC-04:00)

A-11 Canister half - Pass Details

Date: 12 August 2020
Orbit: 1527 x 1682 km, 47.3° (Epoch: 25 September)

Event Time Altitude Azimuth Distance (km) Brightness Sun altitude
Rises 16:08:18 0° 291° (WNW) 4,935 12.1 48.9°
Reaches altitude 10° 16:11:44 10° 298° (WNW) 3,947 11.7 48.2°
Maximum altitude 16:21:20 44° 8° (N) 2,182 10.1 46.3°
Drops below altitude 10° 16:30:45 10° 79° (E) 3,881 10.8 44.5°
Sets 16:34:06 0° 86° (E) 4,847 11.2 43.9°
